User: anonymous   Login
Location: Oshawa
(43.9000°N, 78.8670°W)
Time: 11:28:45
(UTC-04:00)
Language:

Cosmos 2333 Rocket - Orbit

View from above orbital plane
View from above orbital plane
View from above satellite
View from above satellite

Ground track
Ground track

The orbit data is extracted from the following two-line orbital elements,

1 24298U 96051B   16274.38972152  .00000077  00000-0  67994-4 0  9996
2 24298  70.8386 249.6364 0018773 215.1402 144.8481 14.12435168 35131
Epoch (UTC): 30 September 2016 09:21:11
Eccentricity: 0.0018773
inclination: 70.8386°
perigee height: 837 km
apogee height: 864 km
right ascension of ascending node: 249.6364°
argument of perigee: 215.1402°
revolutions per day: 14.12435168
mean anomaly at epoch: 144.8481°
orbit number at epoch: 3513

The dashed part of the orbit path shows where the satellite is in the earth's shadow,  

DLR